Water Levels and Discharges  |  Reservoirs  |  Precipitation  |  Water quality Last site revision 09.05.2026 05:51
       
Water Levels and Discharges All data are without validation 09.05.2026 05:54:23
Seč
River: Chrudimka
Crest of dam elevation: 491,11 [m asl]
Spillway elevation: 488,61 [m asl]
Maximum flood control capacity level: 490,11 [m asl]
Usable storage capacity level: 486,81 [m asl]
Ineffective storage level: 469,61 [m asl]
Vertical coordinate system: Balt p.v.
Remark:
Schema:
Go to balance data (monthly series)
Graf
Date Water level [m. n. m.] Outflow [m3s-1] QN
09.05.2026 05:50 0,99
09.05.2026 05:40 485,86
09.05.2026 05:00 485,86 0,99
09.05.2026 04:00 485,86 0,95
09.05.2026 03:00 485,86 0,95
09.05.2026 02:00 485,86 0,96
09.05.2026 01:00 485,85 0,98
09.05.2026 00:00 485,85 0,96
08.05.2026 23:00 485,85 0,98
08.05.2026 22:00 485,85 0,99
08.05.2026 21:00 485,86 0,95
08.05.2026 20:00 485,87 0,92
08.05.2026 19:00 485,89 0,92
08.05.2026 18:00 485,89 0,92
08.05.2026 17:00 485,89 0,94
08.05.2026 16:00 485,89 0,95
08.05.2026 15:00 485,88 0,95
08.05.2026 14:00 485,88 0,96
08.05.2026 13:00 485,88 0,96
08.05.2026 12:00 485,88 0,95
08.05.2026 11:00 485,88 0,97
08.05.2026 10:00 485,88 0,98
08.05.2026 09:00 485,88 0,99
08.05.2026 08:00 485,88 0,98
08.05.2026 07:00 485,88 0,99
08.05.2026 06:00 485,88 0,95
07.05.2026 07:00 485,91 0,99
06.05.2026 07:00 485,93 0,98
05.05.2026 07:00 485,96 0,96
04.05.2026 07:00 485,98 0,92
03.05.2026 07:00 486,01 0,96
This information is also available through the application for mobile phones with Android OS (only in the Czech language)  Reservoir levels
  Povodí Labe, státní podnik © 2026 The system uses also data from measuring stations of   Czech Hydrometeorological Institute © 2026 Application developed by   MGE Data s.r.o. © 1996 - 2024